When you browse on this site, cookies collect data to enhance your experience and personalize the content and advertising you see.
Visit our Privacy Policy to learn more. By continuing to use the site, you agree to this use of cookies and data.
  • In Austria
  • List of Countries
  • For 7 days
  • Water Temperature
  • Weather Map
  • News
  • Weather Widgets
  • user-avatar
    Login

    Hourly Weather Manta

    Today, 23 September, Monday

    Time Temperature Precipitation Wind Pressure Humidity
    00:00 +13°C° 0 mm 1 mps 585 mmHg 97%
    01:00 +12°C° 0 mm 1 mps 584 mmHg 96%
    02:00 +12°C° 0 mm 1 mps 584 mmHg 96%
    03:00 +12°C° 0 mm 1 mps 584 mmHg 95%
    04:00 +11°C° 0 mm 1 mps 584 mmHg 95%
    05:00 +12°C° 0 mm 1 mps 585 mmHg 92%
    06:00 +13°C° 0 mm 1 mps 585 mmHg 90%
    07:00 +14°C° 0 mm 1 mps 586 mmHg 87%
    08:00 +16°C° 0 mm 1 mps 587 mmHg 76%
    09:00 +20°C° 0 mm 1 mps 588 mmHg 64%
    10:00 +21°C° 0 mm 2 mps 590 mmHg 53%
    11:00 +23°C° 0.1 mm 2 mps 589 mmHg 55%
    12:00 +23°C° 0.1 mm 2 mps 588 mmHg 57%
    13:00 +23°C° 0.1 mm 2 mps 587 mmHg 59%
    14:00 +20°C° 0.5 mm 2 mps 586 mmHg 68%
    15:00 +19°C° 0.5 mm 2 mps 585 mmHg 77%
    16:00 +18°C° 0.5 mm 2 mps 585 mmHg 86%
    17:00 +18°C° 0.3 mm 1 mps 584 mmHg 90%
    18:00 +16°C° 0.3 mm 1 mps 584 mmHg 94%
    19:00 +13°C° 0.3 mm 0 mps 584 mmHg 98%
    20:00 +13°C° 0 mm 0 mps 584 mmHg 97%
    21:00 +13°C° 0 mm 1 mps 584 mmHg 96%
    22:00 +13°C° 0 mm 1 mps 585 mmHg 96%
    23:00 +12°C° 0 mm 1 mps 584 mmHg 95%

    Tomorrow, 24 September, Tuesday

    Time Temperature Precipitation Wind Pressure Humidity
    00:00 +12°C° 0 mm 1 mps 584 mmHg 94%
    01:00 +11°C° 0 mm 1 mps 583 mmHg 93%
    02:00 +11°C° 0 mm 1 mps 583 mmHg 92%
    03:00 +11°C° 0 mm 1 mps 583 mmHg 90%
    04:00 +11°C° 0 mm 1 mps 583 mmHg 89%
    05:00 +12°C° 0 mm 1 mps 584 mmHg 87%
    06:00 +12°C° 0 mm 0 mps 585 mmHg 85%
    07:00 +13°C° 0 mm 0 mps 586 mmHg 83%
    08:00 +16°C° 0 mm 1 mps 587 mmHg 74%
    09:00 +19°C° 0 mm 1 mps 588 mmHg 66%
    10:00 +22°C° 0 mm 1 mps 590 mmHg 57%
    11:00 +22°C° 0.1 mm 1 mps 589 mmHg 58%
    12:00 +21°C° 0.1 mm 2 mps 588 mmHg 58%
    13:00 +21°C° 0.1 mm 2 mps 588 mmHg 58%
    14:00 +20°C° 0.3 mm 2 mps 587 mmHg 65%
    15:00 +20°C° 0.3 mm 1 mps 586 mmHg 72%
    16:00 +19°C° 0.3 mm 1 mps 585 mmHg 78%
    17:00 +18°C° 0.5 mm 1 mps 585 mmHg 84%
    18:00 +15°C° 0.5 mm 0 mps 585 mmHg 90%
    19:00 +14°C° 0.5 mm 0 mps 584 mmHg 96%
    20:00 +13°C° 0.1 mm 0 mps 585 mmHg 96%
    21:00 +13°C° 0.1 mm 0 mps 585 mmHg 95%
    22:00 +13°C° 0.1 mm 0 mps 585 mmHg 95%
    23:00 +13°C° 0 mm 0 mps 585 mmHg 95%

    Day after tomorrow, 25 September, Wednesday

    Time Temperature Precipitation Wind Pressure Humidity
    00:00 +14°C° 0 mm 1 mps 585 mmHg 95%
    01:00 +13°C° 0 mm 1 mps 584 mmHg 94%
    02:00 +13°C° 0 mm 1 mps 584 mmHg 94%
    03:00 +13°C° 0 mm 1 mps 584 mmHg 93%
    04:00 +12°C° 0 mm 0 mps 584 mmHg 92%
    05:00 +13°C° 0 mm 0 mps 585 mmHg 91%
    06:00 +13°C° 0 mm 0 mps 586 mmHg 89%
    07:00 +14°C° 0 mm 0 mps 586 mmHg 88%
    08:00 +16°C° 0.2 mm 1 mps 587 mmHg 84%
    09:00 +19°C° 0.2 mm 1 mps 588 mmHg 79%
    10:00 +19°C° 0.2 mm 2 mps 589 mmHg 74%
    11:00 +19°C° 0.9 mm 2 mps 588 mmHg 77%
    12:00 +19°C° 0.9 mm 2 mps 587 mmHg 79%
    13:00 +19°C° 0.9 mm 2 mps 586 mmHg 81%
    14:00 +19°C° 0.8 mm 2 mps 586 mmHg 83%
    15:00 +19°C° 0.8 mm 2 mps 585 mmHg 85%
    16:00 +19°C° 0.8 mm 1 mps 585 mmHg 87%
    17:00 +18°C° 0.5 mm 1 mps 584 mmHg 91%
    18:00 +15°C° 0.5 mm 1 mps 584 mmHg 95%
    19:00 +13°C° 0.5 mm 0 mps 584 mmHg 99%
    20:00 +13°C° 0 mm 0 mps 584 mmHg 98%
    21:00 +13°C° 0 mm 0 mps 585 mmHg 97%
    22:00 +13°C° 0 mm 0 mps 585 mmHg 97%
    23:00 +13°C° 0 mm 0 mps 585 mmHg 96%

    26 September, Thursday

    Time Temperature Precipitation Wind Pressure Humidity
    00:00 +12°C° 0 mm 0 mps 585 mmHg 96%
    01:00 +13°C° 0 mm 1 mps 584 mmHg 96%
    02:00 +13°C° 0 mm 1 mps 584 mmHg 95%
    03:00 +13°C° 0 mm 1 mps 584 mmHg 95%
    04:00 +13°C° 0 mm 1 mps 584 mmHg 94%
    05:00 +12°C° 0 mm 0 mps 585 mmHg 93%
    06:00 +13°C° 0 mm 0 mps 585 mmHg 91%
    07:00 +13°C° 0 mm 0 mps 586 mmHg 90%
    08:00 +16°C° 0.2 mm 1 mps 587 mmHg 87%
    09:00 +18°C° 0.2 mm 1 mps 587 mmHg 83%
    10:00 +18°C° 0.2 mm 2 mps 588 mmHg 80%
    11:00 +18°C° 0.4 mm 2 mps 587 mmHg 79%
    12:00 +18°C° 0.4 mm 2 mps 587 mmHg 78%
    13:00 +19°C° 0.4 mm 2 mps 586 mmHg 77%
    14:00 +19°C° 0.5 mm 2 mps 585 mmHg 79%
    15:00 +18°C° 0.5 mm 2 mps 585 mmHg 80%
    16:00 +18°C° 0.5 mm 2 mps 584 mmHg 82%
    17:00 +18°C° 0.3 mm 1 mps 584 mmHg 87%
    18:00 +15°C° 0.3 mm 1 mps 584 mmHg 92%
    19:00 +12°C° 0.3 mm 0 mps 583 mmHg 97%
    20:00 +12°C° 0 mm 0 mps 584 mmHg 97%
    21:00 +12°C° 0 mm 0 mps 584 mmHg 96%
    22:00 +12°C° 0 mm 0 mps 584 mmHg 96%
    23:00 +13°C° 0 mm 1 mps 584 mmHg 95%

    27 September, Friday

    Time Temperature Precipitation Wind Pressure Humidity
    00:00 +13°C° 0 mm 1 mps 584 mmHg 95%
    01:00 +13°C° 0 mm 1 mps 584 mmHg 94%
    02:00 +12°C° 0 mm 1 mps 583 mmHg 94%
    03:00 +12°C° 0 mm 1 mps 583 mmHg 94%
    04:00 +12°C° 0 mm 1 mps 583 mmHg 93%
    05:00 +13°C° 0 mm 1 mps 584 mmHg 91%
    06:00 +14°C° 0 mm 1 mps 585 mmHg 89%
    07:00 +13°C° 0 mm 0 mps 586 mmHg 87%
    08:00 +18°C° 0.1 mm 1 mps 587 mmHg 79%
    09:00 +19°C° 0.1 mm 2 mps 588 mmHg 70%
    10:00 +21°C° 0.1 mm 2 mps 589 mmHg 62%
    11:00 +21°C° 0.7 mm 2 mps 588 mmHg 65%
    12:00 +21°C° 0.7 mm 3 mps 587 mmHg 69%
    13:00 +21°C° 0.7 mm 3 mps 587 mmHg 72%
    14:00 +20°C° 0.7 mm 2 mps 586 mmHg 75%
    15:00 +19°C° 0.7 mm 2 mps 585 mmHg 79%
    16:00 +18°C° 0.7 mm 2 mps 585 mmHg 83%
    17:00 +18°C° 0.3 mm 1 mps 584 mmHg 88%
    18:00 +15°C° 0.3 mm 1 mps 584 mmHg 93%
    19:00 +13°C° 0.3 mm 0 mps 583 mmHg 98%
    20:00 +12°C° 0 mm 0 mps 584 mmHg 97%
    21:00 +13°C° 0 mm 1 mps 584 mmHg 97%
    22:00 +13°C° 0 mm 1 mps 584 mmHg 96%
    23:00 +12°C° 0 mm 1 mps 584 mmHg 95%

    28 September, Saturday

    Time Temperature Precipitation Wind Pressure Humidity
    00:00 +12°C° 0 mm 1 mps 583 mmHg 95%
    01:00 +12°C° 0 mm 1 mps 583 mmHg 94%
    02:00 +12°C° 0 mm 1 mps 583 mmHg 93%
    03:00 +11°C° 0 mm 1 mps 583 mmHg 93%
    04:00 +11°C° 0 mm 1 mps 582 mmHg 92%
    05:00 +12°C° 0 mm 1 mps 583 mmHg 89%
    06:00 +13°C° 0 mm 1 mps 584 mmHg 87%
    07:00 +14°C° 0 mm 1 mps 585 mmHg 84%
    08:00 +18°C° 0 mm 1 mps 587 mmHg 72%
    09:00 +21°C° 0 mm 1 mps 588 mmHg 60%
    10:00 +24°C° 0 mm 2 mps 589 mmHg 48%
    11:00 +24°C° 0 mm 2 mps 589 mmHg 48%
    12:00 +24°C° 0 mm 2 mps 588 mmHg 48%
    13:00 +25°C° 0 mm 2 mps 587 mmHg 49%
    14:00 +23°C° 0.7 mm 2 mps 586 mmHg 61%
    15:00 +21°C° 0.7 mm 2 mps 585 mmHg 73%
    16:00 +19°C° 0.7 mm 2 mps 584 mmHg 85%
    17:00 +18°C° 0.5 mm 1 mps 584 mmHg 89%
    18:00 +16°C° 0.5 mm 1 mps 583 mmHg 94%
    19:00 +14°C° 0.5 mm 0 mps 583 mmHg 98%
    20:00 +13°C° 0.1 mm 0 mps 583 mmHg 98%
    21:00 +14°C° 0.1 mm 1 mps 583 mmHg 97%
    22:00 +14°C° 0.1 mm 1 mps 584 mmHg 96%
    23:00 +13°C° 0 mm 1 mps 583 mmHg 96%
    Show more